User: anonymous   Login
Location: Unspecified
(0.0000°N, 0.0000°E)
Time: 08:19:36
(UTC+00:00)
Language:

DOVE 2 - Orbit

View from above orbital plane
View from above orbital plane
View from above satellite
View from above satellite

Ground track
Ground track

The orbit data is extracted from the following two-line orbital elements,

1 39132U 13015C   18267.83061229 +.00000253 +00000-0 +28581-4 0  9991
2 39132 064.8760 242.0437 0011785 209.8153 225.2736 15.07083990298506
Epoch (UTC): 24 September 2018 19:56:04
Eccentricity: 0.0011785
inclination: 64.8760°
perigee height: 537 km
apogee height: 553 km
right ascension of ascending node: 242.0437°
argument of perigee: 209.8153°
revolutions per day: 15.07083990
mean anomaly at epoch: 225.2736°
orbit number at epoch: 29850

The dashed part of the orbit path shows where the satellite is in the earth's shadow,  

DLR